Regional Weather Roundup
Issued by NWS

Home | Current Version | Previous Version | Graphics & Text | Print | Product List | Glossary On
Versions: 1 2 3 4 5 6 7 8 9 10 11 12 13 14 15 16 17 18 19 20 21 22 23 24 25 26 27 28 29 30 31 32 33 34 35 36 37 38 39 40 41 42 43 44 45 46 47 48 49 50
032
ASUS45 KBOU 241107
RWRCO

WEATHER ROUNDUP FOR COLORADO
NATIONAL WEATHER SERVICE DENVER/BOULDER CO
500 AM MDT WED AUG 24 2016

NOTE: "FAIR" INDICATES FEW OR NO CLOUDS BELOW 12000 FEET WITH NO
SIGNIFICANT WEATHER AND/OR OBSTRUCTIONS TO VISIBILITY.

COZ001>005-013-030-031-241200-
...NORTHWEST COLORADO...

CITY           SKY/WX    TMP DP  RH WIND       PRES   REMARKS
CRAIG          FAIR      49  44  83 CALM      30.24S
HAYDEN         FAIR      52  41  66 E13       30.25S
MEEKER         FAIR      47  44  90 NE5       30.25S
MOUNT WERNER   NOT AVBL
STEAMBOAT SPGS FAIR      49  45  84 CALM      30.27S
WALDEN         CLOUDY    46  39  76 E6        30.35S
$$

COZ006>008-011-241200-
...WEST CENTRAL VALLEYS...

CITY           SKY/WX    TMP DP  RH WIND       PRES   REMARKS
GRAND JUNCTION FAIR      59  47  64 E5        30.19S
MONTROSE       FAIR      55  51  86 CALM      30.26S
EAGLE          FAIR      50  45  81 E7        30.30S
RIFLE          FAIR      53  51  93 E5        30.23S
DELTA          NOT AVBL
NUCLA          MOCLDY    54  52  94 SE3       30.29S
$$

COZ017>023-064>068-241200-
...SOUTHWEST COLORADO...

CITY           SKY/WX    TMP DP  RH WIND       PRES   REMARKS
DURANGO        CLOUDY    52  48  86 CALM      30.27S
CORTEZ         FAIR      53  52  96 E5        30.25F
PAGOSA SPRINGS FAIR      46  46  99 CALM      30.32S
TELLURIDE      CLOUDY    45  45 100 CALM      30.41S
WOLF CREEK PAS FAIR      36  36 100 CALM      30.54S
$$

COZ009-010-012-014-032>034-037-058>063-241200-
...CENTRAL COLORADO...

CITY           SKY/WX    TMP DP  RH WIND       PRES   REMARKS
ASPEN          MOCLDY    47  45  93 S7        30.33R
BUENA VISTA    LGT RAIN  48  45  87 CALM      30.35S
COPPER MTN     CLOUDY    39  34  81 E13       30.52S HAZE
BERTHOUD PASS  CLOUDY    34  21  60 E14       30.56S WCI  24
COTTONWOOD PAS RAIN      45  41  87 CALM      30.43S
GUNNISON       MOCLDY    48  45  87 SE3       30.36S
KREMMLING      MOCLDY    50  43  76 CALM      30.33S
LEADVILLE      LGT RAIN  40  38  93 W3        30.42S
MONARCH PASS   FOG       36  36 100 CALM      30.61F VSB<1/4
SALIDA         FAIR      51  47  84 CALM      30.41S
SUNLIGHT       MOCLDY    43  37  81 SW5       30.50S
WILKERSON PASS DRIZZLE   37  36  93 S6        30.52S
$$

COZ069>075-241200-
...SAN LUIS VALLEY/SANGRE DE CRISTO MOUNTAINS...

CITY           SKY/WX    TMP DP  RH WIND       PRES   REMARKS
ALAMOSA        CLOUDY    46  45  96 SE3       30.31F
LA VETA PASS   CLOUDY    43  37  81 CALM      30.43S
SAGUACHE       CLOUDY    50  46  87 CALM      30.34S
$$

COZ035-036-038>040-241200-
...NORTHERN COLORADO FRONT RANGE...

CITY           SKY/WX    TMP DP  RH WIND       PRES   REMARKS
DENVER INTL AP CLOUDY    64  42  44 S12       30.16S
DMNS CITY PARK   N/A     65  42  43 S6G12     30.15S
AURORA         CLOUDY    60  44  54 S6        30.18F
FRONT RANGE AP NOT AVBL
ERIE MUNI ARPT MOCLDY    66  42  41 S7        30.14R
BOULDER MUN AP CLOUDY    68  39  34 SE3       30.14R
CENTENNIAL     CLOUDY    62  42  47 S6        30.19F
BROOMFIELD     FAIR      64  43  45 S10       30.17R
FORT COLLINS   FAIR      70  41  35 SE12      30.12S
LONGMONT       MOCLDY    67  43  40 SE5       30.15R
$$

COZ041-046-047-076>085-087-088-241200-
...PIKES PEAK/PALMER DIVIDE AND SOUTHERN FOOTHILLS...

CITY           SKY/WX    TMP DP  RH WIND       PRES   REMARKS
COLO. SPRINGS  MOCLDY    58  43  57 NW7       30.23S
A. F. ACADEMY  MOCLDY    58  43  56 CALM      30.23F
SCHRIEVER AFB  NOT AVBL
ELLICOTT       NOT AVBL
FALCON         FAIR      56  40  56 NW3       30.26S
FORT CARSON    NOT AVBL
LIMON          MOCLDY    60  42  51 W6        30.15S
MONUMENT HILL  CLOUDY    55  41  58 S7        30.27S
TRINIDAD       FAIR      54  49  83 W9        30.20S
$$

COZ042>045-048>051-090-091-241200-
...NORTHEAST COLORADO...

CITY           SKY/WX    TMP DP  RH WIND       PRES   REMARKS
GREELEY ARPT   FAIR      66  45  45 SE6       30.13R
AKRON          FAIR      62  41  46 CALM      30.14F
BURLINGTON     CLOUDY    65  42  43 NW10      30.09R
WRAY           NOT AVBL
STERLING       LGT RAIN  63  46  55 E10       30.11F
HOLYOKE        FAIR      61  46  59 NE3       30.11F
FORT MORGAN    CLOUDY    63  40  42 SE8       30.15R
$$

COZ086-089-092>099-241200-
...SOUTHEAST COLORADO...

CITY           SKY/WX    TMP DP  RH WIND       PRES   REMARKS
PUEBLO         FAIR      59  51  75 W6        30.14S
LA JUNTA       FAIR      62  53  72 W13       30.09S
LAMAR          FAIR      62  53  72 NW7       30.06R
SPRINGFIELD      N/A     61  50  67 NW12      30.08R
$$




USA.gov is the U.S. government's official web portal to all federal, state and local government web resources and services.